Current Version              Previous Version:    01  02  03  04  05  06  07  08  09  10  11  12  13  14  15  16  17  18  19  20  21  22  23  24  25  26  27  28  29  30  
   31  32  33  34  35  36  37  38  39  40  41  42  43  44  45  46  47  48  49  50  51  52  53  54  55  56  57  58  59  60  

[Printable]
815
ASUS44 KFWD 011603
RWRTX
NORTH TEXAS HOURLY WEATHER ROUNDUP
NATIONAL WEATHER SERVICE FORT WORTH TX
1100 AM CDT MON SEP 01 2014

NOTE: "FAIR" INDICATES FEW OR NO CLOUDS BELOW 12,000 FEET WITH NO
SIGNIFICANT WEATHER AND/OR OBSTRUCTIONS TO VISIBILITY.

TXZ118-119-011700-
DALLAS/FORT WORTH METROPLEX

CITY           SKY/WX    TMP DP  RH WIND       PRES   REMARKS
DFW AIRPORT    MOSUNNY   88  72  58 S21       29.91F HX  94
DALLAS LOVE    MOSUNNY   86  71  60 S12       29.92F HX  91
FTW MEACHAM    SUNNY     89  71  55 S16       29.90F HX  95
DAL-EXECUTIVE  MOSUNNY   89  71  55 S12G24    29.93S HX  95
FTW-ALLIANCE   MOSUNNY   87  70  56 S14G24    29.90S HX  92
FTW-NAS-JRB    SUNNY     91  69  48 S16       29.95S HX  96
FTW-SPINKS     MOSUNNY   90  72  55 S13G18    29.94S HX  96
ARLINGTON      MOSUNNY   87  70  56 S17G23    29.92S HX  92
GRAND PRAIRIE  MOSUNNY   86  70  58 MISG      29.94R HX  90
ADDISON        MOSUNNY   86  70  58 S16G22    29.93S HX  90
LANCASTER      MOSUNNY   86  71  60 S14       29.95S HX  91
$$

TXZ091>094-102>105-117-120-121-131>134-011700-
NORTH CENTRAL TEXAS

CITY           SKY/WX    TMP DP  RH WIND       PRES   REMARKS
SHRMAN/DENISON MOSUNNY   87  70  56 S15G21    29.95R HX  92
GAINESVILLE    MOSUNNY   85  72  66 S15G21    29.93R HX  90
BOWIE          SUNNY     85  72  64 S12G20    29.90S HX  91
BRIDGEPORT     SUNNY     86  67  54 S16       29.92S
DECATUR        SUNNY     85  70  59 S14       29.92S
DENTON         SUNNY     87  71  58 S18       29.91S HX  93
MCKINNEY       MOSUNNY   86  71  60 S16       29.92S HX  91
GREENVILLE     PTSUNNY   86  70  58 S16G24    29.96R HX  90
ROCKWALL       PTSUNNY   85  73  67 S16G24    29.93S HX  91
TERRELL        MOSUNNY   85  72  65 S13G24    29.95S HX  91
WAXAHACHIE     PTSUNNY   85  69  57 S18       29.95S
CLEBURNE       SUNNY     86  73  66 S14       29.95S HX  93
GRANBURY       SUNNY     90  69  49 S16       29.92F HX  94
$$

TXZ083>090-098>101-113>116-127>130-139>142-154-155-011700-
WESTERN NORTH TEXAS

CITY           SKY/WX    TMP DP  RH WIND       PRES   REMARKS
WICHITA FALLS  SUNNY     88  70  55 S23       29.86R HX  93
WF-KICKAPOO    SUNNY     88  67  48 SW13G20   29.88R HX  91
VERNON         SUNNY     88  68  51 S18G24    29.87R HX  92
ABILENE        SUNNY     86  68  54 S21G29    29.91S
ABILENE-DYESS  SUNNY     86  69  56 S21G30    29.89S HX  90
BRECKENRIDGE   SUNNY     88  66  47 S17G23    29.90S HAZE    HX  91
GRAHAM         SUNNY     88  68  52 S13G22    29.88S HX  91
MINERAL WELLS  SUNNY     87  70  56 S12       29.90S HX  92
STEPHENVILLE   SUNNY     86  67  53 S12G17    29.96S
COMANCHE         N/A     87  66  49 S13G24    29.94S
BROWNWOOD      SUNNY     86  66  51 S12G20    29.95R
COLEMAN        SUNNY     85  65  51 SW14G21   29.95S
BRADY          SUNNY     84  66  54 S14       29.95S
$$

TXZ143>147-156>162-174-175-011700-
CENTRAL TEXAS

CITY           SKY/WX    TMP DP  RH WIND       PRES   REMARKS
WACO           PTSUNNY   88  72  58 S18       29.94S HX  94
WACO-MCGREGOR  PTSUNNY   88  72  58 S20       29.95S HX  94
HILLSBORO      PTSUNNY   87  70  57 S18G24    29.95S HX  92
CORSICANA      PTSUNNY   86  72  62 S14G23    29.96S HX  92
MEXIA          MOSUNNY   83  73  73 S12       29.95S
HEARNE           N/A     88  74  62 S12G18    29.96S HX  97
CAMERON        MOSUNNY   86  73  64 S13G20    29.95R HX  93
TEMPLE         MOSUNNY   88  70  55 S21G30    29.94S HX  92
KILLEEN        MOSUNNY   88  70  55 S18G26    29.95R HX  92
KILLEEN-SKYLRK MOSUNNY   88  70  55 S16       29.95S HX  92
FORT HOOD      MOSUNNY   90  69  50 S13G21    29.95R HX  94
HAMILTON       SUNNY     87  68  52 S17G24    29.97R HX  90
LAMPASAS       MOSUNNY   85  72  64 S10G17    29.95S HX  90
$$

TXZ095>097-106>112-122>126-135>138-148>153-164>167-011700-
EAST TEXAS

CITY           SKY/WX    TMP DP  RH WIND       PRES   REMARKS
PARIS          PTSUNNY   84  70  61 S10       29.99R
SULPHUR SPRNGS PTSUNNY   84  71  65 SW9       30.00R
MOUNT PLEASANT MOSUNNY   86  71  60 S10       30.00R HX  90
GILMER         SUNNY     84  72  65 S8G16     30.00R
MINEOLA        CLOUDY    82  73  74 S12       29.98R
TYLER          CLOUDY    87  72  60 SW12      29.98R HX  93
LONGVIEW       PTSUNNY   89  70  53 S17       29.98R HX  94
MARSHALL       MOSUNNY   89  74  62 S12       30.01S HX  97
ATHENS         PTSUNNY   82  72  69 S7G18     29.96S
PALESTINE      MOSUNNY   85  73  65 S8        29.99R HX  92
JACKSONVILLE   PTSUNNY   84  74  71 S7        30.02R HX  91
HENDERSON      SUNNY     85  71  62 S9        30.00S HX  91
NACOGDOCHES    PTSUNNY   84  73  70 S13       30.00R HX  91
LUFKIN         PTSUNNY   89  75  63 S9        29.99S HX  99
$$

SUPPLEMENTAL OBSERVATIONS (CENTRAL)

CITY           SKY/WX    TMP DP  RH WIND       PRES   REMARKS
$$

SUPPLEMENTAL OBSERVATIONS (WEST)

CITY           SKY/WX    TMP DP  RH WIND       PRES   REMARKS
$$

SUPPLEMENTAL OBSERVATIONS (EAST)

CITY           SKY/WX    TMP DP  RH WIND       PRES   REMARKS
$$

SUPPLEMENTAL OBSERVATIONS ARE A COLLECTION OF AUTOMATED INSTRUMENTS
THAT ARE MAINTAINED BY A VARIETY OF FEDERAL AND STATE AGENCIES.
CERTAIN ELEMENTS...SUCH AS HUMIDITY VALUES AND SUSTAINED WIND
SPEEDS...MAY BE APPROXIMATED.